| time (UTC) | temp F | wind direction | speed MPH | gust MPH | rain 1hr in | rain 24hr in | rain mn in | humidity % | barometer mb |
| 20260831174551 | 59 | 300 | 0.0 | 0.0 | 0.00 | 0.00 | 0.00 | 79 | 1014.2 |
| 20260831173045 | 57 | 300 | 0.0 | 0.0 | 0.00 | 0.00 | 0.00 | 81 | 1014.4 |
| 20260831171540 | 55 | 300 | 0.0 | 0.0 | 0.00 | 0.00 | 0.00 | 86 | 1014.5 |
| 20260831170040 | 53 | 300 | 0.0 | 0.0 | 0.00 | 0.00 | 0.00 | 89 | 1014.5 |
| 20260831164531 | 51 | 300 | 0.0 | 0.0 | 0.00 | 0.00 | 0.00 | 93 | 1014.8 |
| 20260831163029 | 49 | 300 | 0.0 | 0.0 | 0.00 | 0.00 | 0.00 | 96 | 1015.0 |
| 20260831161530 | 47 | 300 | 0.0 | 0.0 | 0.00 | 0.00 | 0.00 | 96 | 1015.2 |
| 20260831160026 | 46 | 300 | 0.0 | 0.0 | 0.00 | 0.00 | 0.00 | 96 | 1015.3 |
| 20260831154526 | 45 | 300 | 0.0 | 0.0 | 0.00 | 0.00 | 0.00 | 96 | 1015.4 |
| 20260831153025 | 44 | 300 | 0.0 | 0.0 | 0.00 | 0.00 | 0.00 | 96 | 1015.4 |
| 20260831151525 | 43 | 300 | 0.0 | 0.0 | 0.00 | 0.00 | 0.00 | 96 | 1015.5 |
| 20260831150025 | 42 | 300 | 0.0 | 0.0 | 0.00 | 0.00 | 0.00 | 96 | 1015.5 |
| 20260831144523 | 42 | 300 | 0.0 | 0.0 | 0.00 | 0.00 | 0.00 | 95 | 1015.5 |
| 20260831143023 | 41 | 300 | 0.0 | 0.0 | 0.00 | 0.00 | 0.00 | 95 | 1015.3 |
| 20260831141522 | 41 | 300 | 0.0 | 0.0 | 0.00 | 0.00 | 0.00 | 95 | 1015.3 |
| 20260831140033 | 41 | 300 | 0.0 | 0.0 | 0.00 | 0.00 | 0.00 | 94 | 1015.2 |
| 20260831134521 | 41 | 300 | 0.0 | 0.0 | 0.00 | 0.00 | 0.00 | 94 | 1014.9 |
| 20260831133020 | 41 | 300 | 0.0 | 0.0 | 0.00 | 0.00 | 0.00 | 94 | 1014.9 |
| 20260831131520 | 41 | 300 | 0.0 | 0.0 | 0.00 | 0.00 | 0.00 | 94 | 1014.9 |
| 20260831130020 | 41 | 300 | 0.0 | 0.0 | 0.00 | 0.00 | 0.00 | 93 | 1014.9 |
| 20260831124517 | 41 | 300 | 0.0 | 0.0 | 0.00 | 0.00 | 0.00 | 93 | 1014.9 |
| 20260831123016 | 42 | 300 | 0.0 | 0.0 | 0.00 | 0.00 | 0.00 | 93 | 1014.9 |
| 20260831121517 | 42 | 300 | 0.0 | 0.0 | 0.00 | 0.00 | 0.00 | 93 | 1014.9 |
| 20260831120017 | 42 | 300 | 0.0 | 0.0 | 0.00 | 0.00 | 0.00 | 92 | 1015.0 |
| 20260831114513 | 42 | 300 | 0.0 | 0.0 | 0.00 | 0.00 | 0.00 | 92 | 1015.1 |
| 20260831113011 | 43 | 300 | 0.0 | 0.0 | 0.00 | 0.00 | 0.00 | 93 | 1015.0 |
| 20260831111510 | 43 | 300 | 0.0 | 0.0 | 0.00 | 0.00 | 0.00 | 92 | 1015.2 |
| 20260831110009 | 43 | 300 | 0.0 | 0.0 | 0.00 | 0.00 | 0.00 | 91 | 1015.1 |
| 20260831104509 | 43 | 300 | 0.0 | 0.0 | 0.00 | 0.00 | 0.00 | 92 | 1015.2 |
| 20260831103006 | 44 | 300 | 0.0 | 0.0 | 0.00 | 0.00 | 0.00 | 92 | 1015.2 |
| 20260831101512 | 44 | 300 | 0.0 | 0.0 | 0.00 | 0.00 | 0.00 | 91 | 1015.1 |
| 20260831100002 | 44 | 300 | 0.0 | 0.0 | 0.00 | 0.00 | 0.00 | 91 | 1015.3 |
| 20260831094502 | 44 | 300 | 0.0 | 0.0 | 0.00 | 0.00 | 0.00 | 90 | 1015.4 |
| 20260831093100 | 45 | 300 | 0.0 | 0.0 | 0.00 | 0.00 | 0.00 | 90 | 1015.5 |
| 20260831091558 | 45 | 300 | 0.0 | 0.0 | 0.00 | 0.00 | 0.00 | 90 | 1015.4 |
| 20260831084600 | 46 | 300 | 0.0 | 0.0 | 0.00 | 0.00 | 0.00 | 89 | 1015.5 |
| 20260831083053 | 46 | 300 | 0.0 | 0.0 | 0.00 | 0.00 | 0.00 | 88 | 1015.4 |
| 20260831081553 | 47 | 300 | 0.0 | 0.0 | 0.00 | 0.00 | 0.00 | 87 | 1015.2 |
| 20260831080049 | 47 | 300 | 0.0 | 0.0 | 0.00 | 0.00 | 0.00 | 87 | 1015.3 |
| 20260831074547 | 48 | 300 | 0.0 | 0.0 | 0.00 | 0.00 | 0.00 | 86 | 1015.3 |
| 20260831073046 | 48 | 300 | 0.0 | 0.0 | 0.00 | 0.00 | 0.00 | 85 | 1015.4 |
| 20260831071545 | 49 | 300 | 0.0 | 0.0 | 0.00 | 0.00 | 0.00 | 83 | 1015.6 |
| 20260831070049 | 50 | 300 | 0.0 | 0.0 | 0.00 | 0.00 | 0.00 | 83 | 1015.6 |
| 20260831064540 | 50 | 300 | 0.0 | 0.0 | 0.00 | 0.00 | 0.00 | 82 | 1015.6 |
| 20260831063042 | 51 | 300 | 0.0 | 0.0 | 0.00 | 0.00 | 0.00 | 80 | 1015.6 |
| 20260831061539 | 52 | 300 | 0.0 | 0.0 | 0.00 | 0.00 | 0.00 | 79 | 1015.7 |
| 20260831060038 | 53 | 300 | 0.0 | 0.0 | 0.00 | 0.00 | 0.00 | 78 | 1015.8 |
| 20260831054542 | 54 | 300 | 0.0 | 0.0 | 0.00 | 0.00 | 0.00 | 76 | 1015.9 |
| 20260831053044 | 55 | 300 | 0.0 | 0.0 | 0.00 | 0.00 | 0.00 | 75 | 1016.0 |
| 20260831051542 | 56 | 300 | 0.0 | 0.0 | 0.00 | 0.00 | 0.00 | 74 | 1016.0 |
| 20260831050043 | 57 | 300 | 0.0 | 1.0 | 0.00 | 0.00 | 0.00 | 73 | 1016.0 |
| 20260831044538 | 57 | 292 | 0.0 | 1.0 | 0.00 | 0.00 | 0.00 | 72 | 1015.9 |
| 20260831043041 | 58 | 115 | 0.0 | 1.0 | 0.00 | 0.00 | 0.00 | 70 | 1016.0 |
| 20260831041538 | 58 | 103 | 0.0 | 0.0 | 0.00 | 0.00 | 0.00 | 70 | 1016.0 |
| 20260831040036 | 59 | 132 | 0.0 | 3.0 | 0.00 | 0.00 | 0.00 | 68 | 1016.0 |
| 20260831034534 | 60 | 327 | 0.0 | 2.0 | 0.00 | 0.00 | 0.00 | 67 | 1015.9 |
| 20260831033056 | 60 | 261 | 0.0 | 2.0 | 0.00 | 0.00 | 0.00 | 66 | 1015.7 |
| 20260831031534 | 61 | 237 | 0.0 | 4.0 | 0.00 | 0.00 | 0.00 | 65 | 1015.5 |
| 20260831030033 | 61 | 225 | 0.0 | 3.0 | 0.00 | 0.00 | 0.00 | 64 | 1015.4 |
| 20260831024533 | 62 | 292 | 0.0 | 4.0 | 0.00 | 0.00 | 0.00 | 63 | 1015.4 |
| 20260831023032 | 62 | 196 | 0.0 | 1.0 | 0.00 | 0.00 | 0.00 | 62 | 1015.2 |
| 20260831021532 | 63 | 197 | 0.0 | 2.0 | 0.00 | 0.00 | 0.00 | 62 | 1015.4 |
| 20260831020031 | 63 | 202 | 0.0 | 4.0 | 0.00 | 0.00 | 0.00 | 61 | 1015.3 |
| 20260831014531 | 64 | 280 | 0.0 | 4.0 | 0.00 | 0.00 | 0.00 | 60 | 1015.2 |
| 20260831013031 | 65 | 150 | 0.0 | 4.0 | 0.00 | 0.00 | 0.00 | 59 | 1015.1 |
| 20260831011541 | 65 | 315 | 0.0 | 6.0 | 0.00 | 0.00 | 0.00 | 58 | 1015.1 |
| 20260831010029 | 66 | 183 | 0.0 | 4.0 | 0.00 | 0.00 | 0.00 | 58 | 1015.2 |
| 20260831004530 | 67 | 283 | 0.0 | 7.0 | 0.00 | 0.00 | 0.00 | 56 | 1015.0 |
| 20260831003035 | 68 | 333 | 0.0 | 3.0 | 0.00 | 0.00 | 0.00 | 55 | 1014.9 |
| 20260831001529 | 68 | 224 | 0.0 | 4.0 | 0.00 | 0.00 | 0.00 | 52 | 1014.8 |
| 20260831000035 | 68 | 285 | 0.0 | 5.0 | 0.00 | 0.00 | 0.00 | 53 | 1014.7 |
| 20260830234536 | 69 | 167 | 0.0 | 4.0 | 0.00 | 0.00 | 0.00 | 52 | 1014.7 |
| 20260830233026 | 69 | 184 | 0.0 | 3.0 | 0.00 | 0.00 | 0.00 | 53 | 1014.8 |
| 20260830231525 | 69 | 213 | 0.0 | 8.0 | 0.00 | 0.00 | 0.00 | 52 | 1014.9 |
| 20260830230024 | 69 | 159 | 0.0 | 2.0 | 0.00 | 0.00 | 0.00 | 51 | 1014.9 |
| 20260830224524 | 69 | 188 | 0.0 | 3.0 | 0.00 | 0.00 | 0.00 | 51 | 1014.9 |
| 20260830223023 | 69 | 108 | 0.0 | 5.0 | 0.00 | 0.00 | 0.00 | 52 | 1015.2 |
| 20260830221534 | 69 | 234 | 1.0 | 8.0 | 0.00 | 0.00 | 0.00 | 51 | 1015.4 |
| 20260830220020 | 69 | 229 | 0.0 | 5.0 | 0.00 | 0.00 | 0.00 | 51 | 1015.6 |
| 20260830214518 | 68 | 175 | 1.0 | 6.0 | 0.00 | 0.00 | 0.00 | 51 | 1015.7 |
| 20260830213017 | 68 | 172 | 0.0 | 3.0 | 0.00 | 0.00 | 0.00 | 50 | 1015.7 |
| 20260830211516 | 68 | 241 | 1.0 | 7.0 | 0.00 | 0.00 | 0.00 | 49 | 1015.9 |